Powrót do katalogu

FENGYUN 1C DEB

AktywnyPO
NORAD 31346·DEBRIS·🇨🇳 China

Wystrzelony May 10, 1999 z Taiyuan Satellite Launch Center

Loading…

Następne Przeloty (najbliższe 24 godziny)

TLE

ŚwieżeSource: Space-Track

Epoka: Sep 14, 2026, 06:33 UTC

1 31346U 99025BRA 26257.27295409  .00010147  00000-0  41802-3 0  9993
2 31346  98.8768 275.7858 0091103 172.7087 187.5494 15.20567555 36618

Śledź FENGYUN 1C DEB w czasie rzeczywistym z AllMySat

Download on the App Store